When you browse on this site, cookies collect data to enhance your experience and personalize the content and advertising you see.
Visit our Privacy Policy to learn more. By continuing to use the site, you agree to this use of cookies and data.
  • In Sweden
  • List of Countries
  • For 7 days
  • Water Temperature
  • Satellite Maps
  • Weather Map
  • Weather Widgets
  • user-avatar
    Login

    Hourly Weather Bogolyubovo

    Today, 17 June, Monday

    Time Temperature Precipitation Wind Pressure Humidity
    00:00 +11°C° 0 mm 3 mps 744 mmHg 80%
    01:00 +10°C° 0 mm 4 mps 743 mmHg 82%
    02:00 +10°C° 0 mm 4 mps 743 mmHg 85%
    03:00 +10°C° 0.1 mm 3 mps 743 mmHg 86%
    04:00 +10°C° 0.1 mm 3 mps 743 mmHg 87%
    05:00 +11°C° 0 mm 3 mps 743 mmHg 90%
    06:00 +12°C° 0.5 mm 2 mps 743 mmHg 91%
    07:00 +12°C° 0.5 mm 2 mps 743 mmHg 92%
    08:00 +12°C° 0.5 mm 2 mps 743 mmHg 94%
    09:00 +12°C° 0.9 mm 2 mps 743 mmHg 93%
    10:00 +12°C° 0.9 mm 2 mps 743 mmHg 93%
    11:00 +11°C° 0.9 mm 3 mps 742 mmHg 92%
    12:00 +12°C° 0.8 mm 2 mps 742 mmHg 88%
    13:00 +13°C° 0.8 mm 2 mps 742 mmHg 84%
    14:00 +13°C° 0.8 mm 1 mps 742 mmHg 79%
    15:00 +14°C° 0.1 mm 1 mps 742 mmHg 76%
    16:00 +14°C° 0.1 mm 1 mps 742 mmHg 73%
    17:00 +15°C° 0.1 mm 1 mps 742 mmHg 70%
    18:00 +14°C° 0.3 mm 2 mps 742 mmHg 74%
    19:00 +14°C° 0.3 mm 2 mps 742 mmHg 78%
    20:00 +13°C° 0.3 mm 2 mps 742 mmHg 83%
    21:00 +12°C° 0 mm 2 mps 743 mmHg 84%
    22:00 +10°C° 0 mm 2 mps 743 mmHg 85%
    23:00 +9°C° 0 mm 2 mps 743 mmHg 86%

    Tomorrow, 18 June, Tuesday

    Time Temperature Precipitation Wind Pressure Humidity
    00:00 +8°C° 0 mm 2 mps 743 mmHg 86%
    01:00 +8°C° 0 mm 2 mps 743 mmHg 85%
    02:00 +7°C° 0 mm 2 mps 743 mmHg 85%
    03:00 +7°C° 0 mm 2 mps 743 mmHg 86%
    04:00 +7°C° 0 mm 2 mps 743 mmHg 86%
    05:00 +7°C° 0 mm 2 mps 743 mmHg 87%
    06:00 +9°C° 0 mm 2 mps 743 mmHg 82%
    07:00 +11°C° 0 mm 3 mps 743 mmHg 77%
    08:00 +13°C° 0 mm 3 mps 743 mmHg 73%
    09:00 +14°C° 0 mm 3 mps 743 mmHg 66%
    10:00 +16°C° 0 mm 2 mps 743 mmHg 60%
    11:00 +17°C° 0 mm 2 mps 743 mmHg 54%
    12:00 +18°C° 0.4 mm 3 mps 743 mmHg 56%
    13:00 +18°C° 0.4 mm 3 mps 742 mmHg 58%
    14:00 +18°C° 0.4 mm 3 mps 742 mmHg 59%
    15:00 +18°C° 0.7 mm 3 mps 742 mmHg 63%
    16:00 +18°C° 0.7 mm 3 mps 742 mmHg 66%
    17:00 +18°C° 0.7 mm 3 mps 742 mmHg 69%
    18:00 +17°C° 0.9 mm 3 mps 742 mmHg 74%
    19:00 +16°C° 0.9 mm 2 mps 743 mmHg 79%
    20:00 +15°C° 0.9 mm 2 mps 743 mmHg 83%
    21:00 +14°C° 0.4 mm 2 mps 743 mmHg 86%
    22:00 +12°C° 0.4 mm 3 mps 743 mmHg 89%
    23:00 +11°C° 0.4 mm 3 mps 744 mmHg 92%

    Day after tomorrow, 19 June, Wednesday

    Time Temperature Precipitation Wind Pressure Humidity
    00:00 +11°C° 0 mm 3 mps 744 mmHg 93%
    01:00 +10°C° 0 mm 3 mps 744 mmHg 94%
    02:00 +9°C° 0 mm 3 mps 745 mmHg 95%
    03:00 +9°C° 0 mm 3 mps 745 mmHg 94%
    04:00 +9°C° 0 mm 3 mps 745 mmHg 93%
    05:00 +8°C° 0 mm 3 mps 746 mmHg 92%
    06:00 +10°C° 0 mm 3 mps 746 mmHg 87%
    07:00 +11°C° 0 mm 3 mps 747 mmHg 83%
    08:00 +12°C° 0 mm 3 mps 747 mmHg 78%
    09:00 +14°C° 0 mm 3 mps 747 mmHg 70%
    10:00 +16°C° 0 mm 3 mps 747 mmHg 62%
    11:00 +17°C° 0 mm 3 mps 747 mmHg 55%
    12:00 +18°C° 0 mm 3 mps 747 mmHg 54%
    13:00 +19°C° 0 mm 3 mps 747 mmHg 53%
    14:00 +19°C° 0 mm 4 mps 748 mmHg 53%
    15:00 +19°C° 0.1 mm 4 mps 748 mmHg 57%
    16:00 +19°C° 0.1 mm 4 mps 748 mmHg 61%
    17:00 +19°C° 0.1 mm 4 mps 748 mmHg 65%
    18:00 +18°C° 0.3 mm 4 mps 748 mmHg 70%
    19:00 +17°C° 0.3 mm 3 mps 748 mmHg 76%
    20:00 +16°C° 0.3 mm 3 mps 748 mmHg 82%
    21:00 +15°C° 0 mm 2 mps 749 mmHg 84%
    22:00 +14°C° 0 mm 2 mps 749 mmHg 85%
    23:00 +13°C° 0 mm 2 mps 749 mmHg 87%

    20 June, Thursday

    Time Temperature Precipitation Wind Pressure Humidity
    00:00 +12°C° 0 mm 2 mps 749 mmHg 84%
    01:00 +12°C° 0 mm 1 mps 750 mmHg 81%
    02:00 +11°C° 0 mm 1 mps 750 mmHg 77%
    03:00 +11°C° 0 mm 1 mps 750 mmHg 76%
    04:00 +11°C° 0 mm 1 mps 750 mmHg 74%
    05:00 +11°C° 0 mm 1 mps 751 mmHg 73%
    06:00 +13°C° 0 mm 1 mps 751 mmHg 69%
    07:00 +15°C° 0 mm 1 mps 751 mmHg 65%
    08:00 +18°C° 0 mm 1 mps 751 mmHg 61%
    09:00 +19°C° 0 mm 1 mps 751 mmHg 58%
    10:00 +19°C° 0 mm 2 mps 751 mmHg 55%
    11:00 +21°C° 0 mm 2 mps 751 mmHg 52%
    12:00 +21°C° 0 mm 3 mps 751 mmHg 51%
    13:00 +22°C° 0 mm 3 mps 751 mmHg 51%
    14:00 +24°C° 0 mm 3 mps 751 mmHg 51%
    15:00 +23°C° 0.2 mm 4 mps 751 mmHg 54%
    16:00 +22°C° 0.2 mm 4 mps 750 mmHg 57%
    17:00 +22°C° 0.2 mm 4 mps 750 mmHg 60%
    18:00 +21°C° 0.1 mm 4 mps 750 mmHg 65%
    19:00 +20°C° 0.1 mm 3 mps 750 mmHg 70%
    20:00 +19°C° 0.1 mm 3 mps 750 mmHg 75%
    21:00 +18°C° 0 mm 3 mps 750 mmHg 75%
    22:00 +17°C° 0 mm 4 mps 750 mmHg 76%
    23:00 +15°C° 0 mm 4 mps 750 mmHg 76%

    21 June, Friday

    Time Temperature Precipitation Wind Pressure Humidity
    00:00 +15°C° 0 mm 4 mps 749 mmHg 75%
    01:00 +15°C° 0 mm 4 mps 749 mmHg 74%
    02:00 +14°C° 0 mm 4 mps 749 mmHg 73%
    03:00 +14°C° 0 mm 5 mps 749 mmHg 72%
    04:00 +14°C° 0 mm 5 mps 749 mmHg 71%
    05:00 +14°C° 0 mm 5 mps 749 mmHg 70%
    06:00 +15°C° 0.1 mm 5 mps 748 mmHg 72%
    07:00 +17°C° 0.1 mm 6 mps 748 mmHg 73%
    08:00 +19°C° 0.1 mm 6 mps 748 mmHg 74%
    09:00 +20°C° 0.1 mm 6 mps 748 mmHg 73%
    10:00 +21°C° 0.1 mm 6 mps 748 mmHg 72%
    11:00 +21°C° 0.1 mm 6 mps 748 mmHg 71%
    12:00 +22°C° 0.5 mm 6 mps 748 mmHg 68%
    13:00 +23°C° 0.5 mm 6 mps 748 mmHg 66%
    14:00 +24°C° 0.5 mm 7 mps 747 mmHg 64%
    15:00 +23°C° 1.2 mm 6 mps 747 mmHg 65%
    16:00 +23°C° 1.2 mm 5 mps 747 mmHg 66%
    17:00 +23°C° 1.2 mm 5 mps 747 mmHg 68%
    18:00 +21°C° 0.2 mm 4 mps 747 mmHg 71%
    19:00 +20°C° 0.2 mm 4 mps 747 mmHg 75%
    20:00 +19°C° 0.2 mm 4 mps 747 mmHg 78%
    21:00 +17°C° 0 mm 4 mps 748 mmHg 82%
    22:00 +15°C° 0 mm 4 mps 748 mmHg 87%
    23:00 +14°C° 0 mm 4 mps 749 mmHg 91%

    22 June, Saturday

    Time Temperature Precipitation Wind Pressure Humidity
    00:00 +13°C° 0 mm 4 mps 749 mmHg 93%
    01:00 +13°C° 0 mm 4 mps 749 mmHg 94%
    02:00 +12°C° 0 mm 4 mps 749 mmHg 96%
    03:00 +12°C° 0 mm 4 mps 750 mmHg 95%
    04:00 +12°C° 0 mm 4 mps 750 mmHg 95%
    05:00 +11°C° 0 mm 4 mps 750 mmHg 95%
    06:00 +13°C° 0 mm 4 mps 751 mmHg 89%
    07:00 +14°C° 0 mm 5 mps 751 mmHg 82%
    08:00 +15°C° 0 mm 5 mps 751 mmHg 76%
    09:00 +16°C° 0 mm 5 mps 752 mmHg 71%
    10:00 +17°C° 0 mm 5 mps 752 mmHg 67%
    11:00 +19°C° 0 mm 5 mps 752 mmHg 62%
    12:00 +19°C° 0 mm 5 mps 752 mmHg 60%
    13:00 +20°C° 0 mm 5 mps 752 mmHg 57%
    14:00 +20°C° 0 mm 5 mps 752 mmHg 55%
    15:00 +21°C° 0 mm 4 mps 752 mmHg 55%
    16:00 +21°C° 0 mm 4 mps 752 mmHg 55%
    17:00 +21°C° 0 mm 4 mps 752 mmHg 56%
    18:00 +20°C° 0 mm 3 mps 752 mmHg 60%
    19:00 +19°C° 0 mm 2 mps 752 mmHg 65%
    20:00 +18°C° 0 mm 2 mps 751 mmHg 70%
    21:00 +17°C° 0 mm 2 mps 751 mmHg 71%
    22:00 +16°C° 0 mm 3 mps 751 mmHg 71%
    23:00 +14°C° 0 mm 4 mps 751 mmHg 72%
    Show more